Location: Unspecified
(0.0000°N, 0.0000°E)
Time: 08:40:28
(UTC+00:00)

Tiros 1 despin weight - Pass Details

Date: 12 October 2023
Orbit: 583 x 627 km, 48.2° (Epoch: 05 December)

Event Time Altitude Azimuth Distance (km) Brightness Sun altitude
Rises 12:06:24 0° 230° (SW) 2,896 ? 81.1°
Reaches altitude 10° 12:08:47 10° 236° (WSW) 1,993 ? 80.7°
Maximum altitude 12:13:10 45° 309° (NW) 855 ? 80.1°
Drops below altitude 10° 12:17:34 10° 22° (NNE) 1,993 ? 79.3°
Sets 12:19:57 0° 28° (NNE) 2,897 ? 78.9°
